User: anonymous   Login
Location: Pasadena, ca
(34.1243°N, 118.1037°W)
Time: 19:39:37
(UTC-07:00)
Language:

Tiangong 2 - Orbit

View from above orbital plane
View from above orbital plane
View from above satellite
View from above satellite

Ground track
Ground track

The orbit data is extracted from the following two-line orbital elements,

1 41765U 16057A   18295.78851105  .00003417  00000-0  46058-4 0  9994
2 41765  42.7851 301.5110 0006277  57.2599 126.9194 15.59784195119942
Epoch (UTC): 22 October 2018 18:55:27
Eccentricity: 0.0006277
inclination: 42.7851°
perigee height: 384 km
apogee height: 392 km
right ascension of ascending node: 301.5110°
argument of perigee: 57.2599°
revolutions per day: 15.59784195
mean anomaly at epoch: 126.9194°
orbit number at epoch: 11994

The dashed part of the orbit path shows where the satellite is in the earth's shadow,  

DLR